Погода в Русе

Болгария     43°50′45″N   25°57′38″E
темп.,
°C
ветер,
м/с
пор.,
м/с
влажн.,
%
обл.,
%
осадки,
мм/ч
давл.,
гПа
погр.,
м
17 апреля, сб
сб1700:00+5ююз226335 0.0 102120
03:00+4зюз1165100 0.0 102010
06:00+4юв116399 0.0 102010
09:00+8в235773 0.0 1020261
12:00+13юв455592 0.0 10191279
15:00+14вюв4554100 0.1 10161627
18:00+11вюв5870100 0.6 1016399
21:00+9вюв51071100 0.6 1016339
18 апреля, вс
вс1800:00+7вюв61174100 0.1 1016346
03:00+7в5972100 0.1 1016340
06:00+7в51071100 0.0 1015382
09:00+8в51073100 0.0 1015484
12:00+9в6976100 0.0 1015684
15:00+11в5679100 0.0 1014731
18:00+11св448398 0.0 1014554
21:00+8св3596100 0.0 1016122
19 апреля, пн
пн1900:00+8св239393 0.0 1016132
03:00+8св249484 0.0 1015156
06:00+7св3593100 0.1 1014191
09:00+7св3692100 0.6 1014251
12:00+8с4484100 0.1 1013390
15:00+7с3595100 3.7 1011238
18:00+8зсз2498100 0.4 1009249
21:00+7зсз4699100 2.4 1009353
20 апреля, вт
вт2000:00+8зсз4699100 2.0 1007417
03:00+7ссз61096100 4.3 1008505
06:00+7зюз4796100 1.3 1009299
09:00+7з7119294 1.7 1010473
12:00+11з8972100 0.0 10111135
15:00+13з7106496 0.1 10121562
18:00+14з6105958 0.0 10121838
21:00+9юз47755 0.0 1013114
21 апреля, ср
ср2100:00+8ююз47785 0.0 1014114
03:00+7юз49825 0.0 1015142
06:00+6юз48855 0.0 1015144
09:00+10зюз597012 0.0 1017530
12:00+15з58595 0.0 10171510
15:00+17з684874 0.0 10162252
18:00+17з46535 0.0 10161651
21:00+12ююв22620 0.0 101711